Skip Page Navigation
NASA JPL Caltech
NASA Logo - Jet Propulsion Laboratory + View the NASA Portal
+ Near-Earth Object (NEO) Program
Search JPL
JPL Home Earth Solar System Stars & Galaxies Technology
JPL Solar System Dynamics
BODIES ORBITS EPHEMERIDES TOOLS PHYSICAL DATA DISCOVERY FAQ SITE MAP
JPL Small-Body Database Browser
Search: [ help ]  
19306 Voves (1996 TN12)
Classification: Main-belt Asteroid          SPK-ID: 2019306
Ephemeris | Orbit Diagram | Orbital Elements | Physical Parameters | Discovery Circumstances | Close-Approach Data ]

[ show orbit diagram ]
Orbital Elements at Epoch 2457400.5 (2016-Jan-13.0) TDB
Reference: JPL 9 (heliocentric ecliptic J2000)
 Element Value Uncertainty (1-sigma)   Units 
e .1659941110593071 4.4366e-08  
a 2.356294463434173 1.1532e-08 au
q 1.965163458582451 1.0614e-07 au
i 1.459666098763116 5.3381e-06 deg
node 240.8299386373602 0.00021086 deg
peri 230.5087940575164 0.00021192 deg
M 51.74778455029671 1.949e-05 deg
tp 2457210.596909909199
(2015-Jul-07.09690991)
7.1227e-05 JED
period 1321.121532579627
3.62
9.6985e-06
2.655e-08
d
yr
n .2724957478340866 2.0004e-09 deg/d
Q 2.747425468285896 1.3446e-08 au
  Orbit Determination Parameters
   # obs. used (total)      969  
   data-arc span      8192 days (22.43 yr)  
   first obs. used      1992-09-22  
   last obs. used      2015-02-26  
   planetary ephem.      DE431  
   SB-pert. ephem.      SB431-BIG16  
   condition code      0  
   fit RMS      .51541  
   data source      ORB  
   producer      Otto Matic  
   solution date      2015-Apr-07 17:03:14  

Additional Information
 Earth MOID = .982043 au 
 Jupiter MOID = 2.37045 au 
 T_jup = 3.535 
[ show covariance matrix ]

Ephemeris | Orbit Diagram | Orbital Elements | Physical Parameters | Discovery Circumstances | Close-Approach Data ]

Physical Parameter Table
Parameter Symbol Value Units Sigma Reference Notes
absolute magnitude H 15.0 mag n/a MPO319326  

19306 Voves           Discovered 1996 Oct. 12 at Santa Lucia Stroncone.
Voves is a French town, located in the Beauce natural region, Eure-et-Loire department. There are examples of megalithic monuments (dolmens), old windmills and modern wind turbines. Voves is twinned with the Italian town of Stroncone.
NOTE: some special characters may not display properly (any characters within {} are an attempt to place the proper accent above a character)
Reference: 20130127/MPCPages.arcLast Updated: 2013-01-31

[ show close-approach data ]
Alternate Designations
 1996 TN12 = 1992 SM18 
Ephemeris | Orbit Diagram | Orbital Elements | Physical Parameters | Discovery Circumstances | Close-Approach Data ]
ABOUT SSD CREDITS/AWARDS PRIVACY/COPYRIGHT GLOSSARY LINKS
FirstGov 2016-Feb-10 08:46 UT
(server date/time)  
NASA Home Page
Site Manager:   Ryan S. Park
Webmaster  Alan B. Chamberlin